1512835200.96,26901,4.44,71796.0,-15.27,-19.61,-20.73,0,*64
1512835202.21,26902,4.44,71792.8,-15.25,-19.61,-20.69,0,*6E
1512835203.45,26903,4.44,71790.0,-15.27,-19.51,-20.73,0,*65
1512835204.72,26904,4.44,71794.0,-15.27,-19.61,-20.73,0,*61
1512835205.99,26905,4.44,71796.5,-15.27,-19.61,-20.73,0,*60
1512835207.24,26906,4.44,71796.5,-15.25,-19.57,-20.69,0,*6F
1512835208.48,26907,4.44,71796.5,-15.25,-19.61,-20.69,0,*6B
1512835209.73,26908,4.44,71798.5,-15.25,-19.57,-20.69,0,*61
1512835211.0,26909,4.44,71800.0,-15.27,-19.61,-20.73,0,*6C
1512835212.27,26910,4.44,71794.3,-15.27,-19.61,-20.73,0,*64
1512835213.53,26911,4.44,71794.5,-15.27,-19.65,-20.73,0,*61
1512835214.78,26912,4.44,71794.3,-15.27,-19.51,-20.63,0,*64
1512835216.0,26913,4.44,71796.3,-15.25,-19.47,-20.69,0,*6A
1512835217.25,26914,4.44,71794.8,-15.25,-19.57,-20.63,0,*66
1512835218.49,26915,4.44,71796.8,-15.25,-19.57,-20.69,0,*6D
1512835219.76,26916,4.44,71796.8,-15.27,-19.61,-20.73,0,*62
1512835221.03,26917,4.44,71798.3,-15.27,-19.61,-20.73,0,*63
1512835222.28,26918,4.44,71800.0,-15.25,-19.61,-20.63,0,*6F
1512835223.55,26919,4.44,71802.0,-15.27,-19.61,-20.69,0,*66
1512835224.79,26920,4.44,71800.5,-15.27,-19.51,-20.73,0,*64
1512835226.06,26921,4.44,71802.8,-15.27,-19.61,-20.73,0,*66
1512835227.3,26922,4.44,71796.3,-15.27,-19.51,-20.73,0,*66
1512835228.54,26923,4.44,71802.8,-15.27,-19.51,-20.69,0,*6C
1512835229.81,26924,4.44,71802.5,-15.27,-19.61,-20.69,0,*68
1512835231.08,26925,4.44,71798.3,-15.25,-19.31,-20.79,0,*6F
1512835232.32,26926,4.44,71802.3,-15.27,-19.51,-20.73,0,*62
1512835233.54,26927,4.44,71798.8,-15.25,-19.47,-20.69,0,*6D
1512835234.78,26928,4.44,71798.0,-15.27,-19.51,-20.69,0,*67
1512835236.02,26929,4.44,71800.3,-15.27,-19.51,-20.73,0,*6D
1512835237.29,26930,4.44,71798.0,-15.27,-19.61,-20.69,0,*6D
1512835238.53,26931,4.44,71802.0,-15.25,-19.57,-20.69,0,*6B
1512835239.8,26932,4.44,71800.3,-15.27,-19.61,-20.73,0,*64
1512835241.07,26933,4.44,71800.8,-15.27,-19.61,-20.73,0,*65
1512835242.36,26934,4.44,71802.5,-15.27,-19.65,-20.83,0,*69
1512835243.65,26935,4.44,71804.8,-15.27,-19.61,-20.83,0,*6C
1512835244.92,26936,4.44,71804.8,-15.27,-19.61,-20.73,0,*60
1512835246.17,26937,4.44,71802.0,-15.27,-19.51,-20.73,0,*62
1512835247.38,26938,4.44,71802.8,-15.25,-19.47,-20.69,0,*63
1512835248.63,26939,4.44,71802.0,-15.27,-19.51,-20.73,0,*6C
1512835249.84,26940,4.44,71802.5,-15.25,-19.47,-20.69,0,*6C
1512835251.06,26941,4.44,71800.0,-15.25,-19.47,-20.69,0,*6D
1512835252.33,26942,4.44,71800.5,-15.27,-19.61,-20.73,0,*63
1512835253.54,26943,4.44,71802.3,-15.25,-19.47,-20.69,0,*6F
1512835254.81,26944,4.44,71798.0,-15.27,-19.61,-20.73,0,*65
1512835256.06,26945,4.44,71788.3,-15.25,-19.61,-20.69,0,*6D
1512835257.31,26946,4.44,71784.3,-15.25,-19.57,-20.69,0,*6B
1512835258.55,26947,4.44,71790.3,-15.25,-19.57,-20.69,0,*6A
1512835259.82,26948,4.44,71804.8,-15.27,-19.61,-20.73,0,*69
1512835261.07,26949,4.44,71798.0,-15.25,-19.57,-20.69,0,*64
1512835262.31,26950,4.44,71790.3,-15.25,-19.61,-20.69,0,*69
1512835263.58,26951,4.44,71790.3,-15.25,-19.57,-20.79,0,*6C
1512835264.82,26952,4.44,71798.0,-15.27,-19.51,-20.73,0,*61
1512835266.07,26953,4.44,71798.8,-15.25,-19.61,-20.69,0,*6A
1512835267.32,26954,4.44,71794.8,-15.25,-19.61,-20.69,0,*6D
1512835268.58,26955,4.44,71796.0,-15.27,-19.61,-20.69,0,*6E
1512835269.83,26956,4.44,71796.5,-15.25,-19.61,-20.69,0,*6F
1512835271.1,26957,4.44,71794.5,-15.27,-19.61,-20.73,0,*67
1512835272.35,26958,4.44,71794.0,-15.25,-19.57,-20.69,0,*64
1512835273.59,26959,4.44,71786.8,-15.25,-19.61,-20.69,0,*60
1512835274.88,26960,4.44,71790.3,-15.27,-19.61,-20.79,0,*69
1512835276.13,26961,4.44,71790.0,-15.25,-19.71,-20.83,0,*6E
1512835277.39,26962,4.44,71800.8,-15.25,-19.61,-20.79,0,*69
1512835278.68,26963,4.44,71804.3,-15.27,-19.65,-20.83,0,*6B
1512835279.95,26964,4.44,71798.3,-15.27,-19.51,-20.83,0,*6B
1512835281.24,26965,4.44,71796.5,-15.27,-19.61,-20.83,0,*69
1512835282.46,26966,4.44,71788.0,-15.25,-19.47,-20.69,0,*68
1512835283.72,26967,4.44,71796.8,-15.27,-19.61,-20.69,0,*6F
1512835284.99,26968,4.44,71792.5,-15.25,-19.57,-20.79,0,*66
1512835286.26,26969,4.44,71794.5,-15.25,-19.57,-20.79,0,*67
1512835287.55,26970,4.44,71794.0,-15.27,-19.65,-20.83,0,*69
1512835288.82,26971,4.44,71784.5,-15.25,-19.57,-20.79,0,*6E
1512835290.11,26972,4.44,71782.3,-15.27,-19.61,-20.83,0,*6F
1512835291.38,26973,4.44,71794.0,-15.27,-19.61,-20.69,0,*6A
1512835292.6,26974,4.44,71792.0,-15.25,-19.47,-20.69,0,*6B
1512835293.84,26975,4.44,71792.3,-15.25,-19.57,-20.69,0,*6B
1512835295.08,26976,4.44,71794.3,-15.25,-19.41,-20.69,0,*6F
1512835296.33,26977,4.44,71794.8,-15.27,-19.51,-20.73,0,*66
1512835297.57,26978,4.44,71788.8,-15.27,-19.47,-20.73,0,*6E
1512835298.81,26979,4.44,71790.8,-15.25,-19.41,-20.63,0,*6A
1512835300.06,26980,4.44,71798.0,-15.25,-19.41,-20.63,0,*6C
1512835301.27,26981,4.44,71802.0,-15.25,-19.51,-20.69,0,*66
1512835302.51,26982,4.44,71794.3,-15.25,-19.41,-20.69,0,*64
1512835303.73,26983,4.44,71780.3,-15.25,-19.47,-20.69,0,*63
1512835304.97,26984,4.44,71784.0,-15.27,-19.47,-20.69,0,*66
1512835306.21,26985,4.44,71794.8,-15.25,-19.41,-20.69,0,*63
1512835307.42,26986,4.44,71790.3,-15.25,-19.47,-20.69,0,*66
1512835308.64,26987,4.44,71794.3,-15.25,-19.47,-20.69,0,*67
1512835309.86,26988,4.44,71794.8,-15.25,-19.47,-20.69,0,*68
1512835311.07,26989,4.44,71794.3,-15.25,-19.47,-20.69,0,*69
1512835312.34,26990,4.44,71794.8,-15.27,-19.61,-20.73,0,*6C
1512835313.59,26991,4.44,71792.3,-15.25,-19.57,-20.69,0,*61
1512835314.8,26992,4.44,71790.5,-15.25,-19.47,-20.69,0,*63
1512835316.05,26993,4.44,71790.3,-15.27,-19.51,-20.73,0,*6C
1512835317.26,26994,4.44,71790.5,-15.25,-19.47,-20.69,0,*65
1512835318.48,26995,4.44,71784.0,-15.25,-19.47,-20.69,0,*64
1512835319.72,26996,4.44,71784.3,-15.25,-19.41,-20.69,0,*61
1512835320.96,26997,4.44,71786.8,-15.25,-19.41,-20.63,0,*6A
1512835322.21,26998,4.44,71790.5,-15.25,-19.41,-20.63,0,*65
1512835323.45,26999,4.44,71792.5,-15.27,-19.47,-20.63,0,*60
1512835324.7,27000,4.44,71794.8,-15.25,-19.41,-20.63,0,*6C
1512835325.92,27001,4.44,71800.0,-15.25,-19.47,-20.63,0,*6B
1512835327.14,27002,4.44,71796.0,-15.25,-19.47,-20.63,0,*68
1512835328.36,27003,4.44,71794.3,-15.23,-19.47,-20.63,0,*6F
1512835329.61,27004,4.44,71784.8,-15.23,-19.57,-20.63,0,*69
1512835330.86,27005,4.44,71790.3,-15.21,-19.51,-20.63,0,*6C
1512835332.11,27006,4.44,71794.5,-15.23,-19.57,-20.69,0,*61
1512835333.33,27007,4.44,71792.8,-15.23,-19.47,-20.69,0,*61
1512835334.6,27008,4.44,71792.5,-15.23,-19.57,-20.79,0,*6E
1512835335.85,27009,4.44,71790.5,-15.21,-19.51,-20.73,0,*61
1512835337.1,27010,4.44,71794.0,-15.23,-19.57,-20.69,0,*66
1512835338.32,27011,4.44,71786.8,-15.23,-19.47,-20.63,0,*6C
1512835339.58,27012,4.44,71790.5,-15.21,-19.37,-20.59,0,*63
1512835340.82,27013,4.44,71792.3,-15.23,-19.41,-20.63,0,*68
1512835342.08,27014,4.44,71794.3,-15.21,-19.51,-20.63,0,*6C
1512835343.3,27015,4.44,71796.5,-15.23,-19.47,-20.63,0,*68
1512835344.52,27016,4.44,71792.3,-15.23,-19.47,-20.69,0,*61
1512835345.74,27017,4.44,71790.8,-15.23,-19.47,-20.63,0,*6A
1512835346.98,27018,4.44,71790.5,-15.23,-19.41,-20.69,0,*69
1512835348.24,27019,4.44,71790.8,-15.21,-19.37,-20.59,0,*68
1512835349.46,27020,4.44,71792.0,-15.23,-19.47,-20.69,0,*64
1512835350.7,27021,4.44,71796.5,-15.23,-19.41,-20.63,0,*69
1512835351.96,27022,4.44,71800.3,-15.21,-19.37,-20.59,0,*60
1512835353.22,27023,4.44,71802.0,-15.21,-19.37,-20.59,0,*61
1512835354.49,27024,4.44,71796.5,-15.23,-19.41,-20.53,0,*6F
1512835355.74,27025,4.44,71798.8,-15.21,-19.37,-20.59,0,*67
1512835357.02,27026,4.44,71798.0,-15.23,-19.41,-20.53,0,*6D
1512835358.27,27027,4.44,71798.8,-15.21,-19.37,-20.43,0,*6E
1512835359.54,27028,4.44,71798.0,-15.23,-19.41,-20.49,0,*68
1512835360.8,27029,4.44,71796.5,-15.21,-19.37,-20.59,0,*6B
1512835362.08,27030,4.44,71796.3,-15.23,-19.31,-20.53,0,*6D
1512835363.35,27031,4.44,71796.3,-15.17,-19.23,-20.43,0,*69
1512835364.64,27032,4.44,71800.5,-15.21,-19.37,-20.49,0,*60
1512835365.92,27033,4.44,71802.0,-15.21,-19.37,-20.49,0,*61
1512835367.2,27034,4.44,71796.0,-15.19,-19.31,-20.49,0,*6B
1512835368.45,27035,4.44,71796.3,-15.21,-19.37,-20.59,0,*66
1512835369.71,27036,4.44,71794.0,-15.21,-19.37,-20.59,0,*65
1512835370.99,27037,4.44,71796.8,-15.21,-19.41,-20.63,0,*6C
1512835372.24,27038,4.44,71794.5,-15.21,-19.51,-20.63,0,*62
1512835373.49,27039,4.44,71794.8,-15.21,-19.51,-20.63,0,*63
1512835374.78,27040,4.44,71798.3,-15.21,-19.57,-20.63,0,*6B
1512835376.03,27041,4.44,71796.8,-15.21,-19.51,-20.73,0,*6D
1512835377.28,27042,4.44,71796.0,-15.21,-19.51,-20.63,0,*6F
1512835378.54,27043,4.44,71796.3,-15.19,-19.57,-20.63,0,*63
1512835379.82,27044,4.44,71800.3,-15.21,-19.57,-20.63,0,*6F
1512835381.07,27045,4.44,71800.0,-15.21,-19.51,-20.63,0,*68
1512835382.35,27046,4.44,71798.5,-15.21,-19.57,-20.63,0,*6D
1512835383.63,27047,4.44,71796.5,-15.21,-19.57,-20.63,0,*6C
1512835384.91,27048,4.44,71792.0,-15.21,-19.65,-20.63,0,*62
1512835386.17,27049,4.44,71796.8,-15.21,-19.51,-20.59,0,*6D
1512835387.42,27050,4.44,71798.0,-15.21,-19.51,-20.59,0,*65
1512835388.67,27051,4.44,71796.0,-15.23,-19.61,-20.69,0,*66
1512835389.93,27052,4.44,71798.5,-15.21,-19.51,-20.63,0,*6E
1512835391.21,27053,4.44,71796.3,-15.21,-19.57,-20.73,0,*68
1512835392.46,27054,4.44,71796.3,-15.21,-19.51,-20.73,0,*69
1512835393.71,27055,4.44,71792.0,-15.21,-19.51,-20.73,0,*68
1512835394.99,27056,4.44,71798.0,-15.21,-19.57,-20.73,0,*6D
1512835396.26,27057,4.44,71794.3,-15.23,-19.61,-20.79,0,*61
1512835397.54,27058,4.44,71794.8,-15.21,-19.57,-20.73,0,*63
1512835398.82,27059,4.44,71792.8,-15.21,-19.57,-20.73,0,*62
1512835400.1,27060,4.44,71798.0,-15.21,-19.57,-20.63,0,*69
1512835401.39,27061,4.44,71796.0,-15.21,-19.57,-20.63,0,*68
1512835402.66,27062,4.44,71796.5,-15.21,-19.65,-20.73,0,*6B
1512835403.94,27063,4.44,71798.5,-15.21,-19.65,-20.73,0,*6A
1512835405.23,27064,4.44,71792.3,-15.21,-19.65,-20.79,0,*67
1512835406.49,27065,4.44,71796.0,-15.21,-19.71,-20.73,0,*69
1512835407.76,27066,4.44,71794.3,-15.21,-19.71,-20.79,0,*60
1512835409.04,27067,4.44,71794.3,-15.21,-19.57,-20.73,0,*6F
1512835410.32,27068,4.44,71796.3,-15.21,-19.65,-20.73,0,*61
1512835411.57,27069,4.44,71794.5,-15.21,-19.71,-20.73,0,*65
1512835412.81,27070,4.44,71798.0,-15.23,-19.71,-20.79,0,*65
1512835414.09,27071,4.44,71800.0,-15.21,-19.65,-20.73,0,*69
1512835415.37,27072,4.44,71796.3,-15.21,-19.65,-20.73,0,*6A
1512835416.62,27073,4.44,71796.0,-15.21,-19.71,-20.73,0,*6E
1512835417.9,27074,4.44,71794.3,-15.21,-19.65,-20.73,0,*6C
1512835419.15,27075,4.44,71796.0,-15.21,-19.71,-20.73,0,*68
1512835420.4,27076,4.44,71798.0,-15.21,-19.71,-20.73,0,*6B
1512835421.68,27077,4.44,71796.3,-15.21,-19.65,-20.73,0,*6F
1512835422.93,27078,4.44,71794.5,-15.21,-19.71,-20.73,0,*65
1512835424.21,27079,4.44,71796.5,-15.21,-19.65,-20.73,0,*61
1512835425.46,27080,4.44,71796.3,-15.21,-19.71,-20.73,0,*62
1512835426.7,27081,4.44,71798.5,-15.23,-19.75,-20.79,0,*6F
1512835427.97,27082,4.44,71798.5,-15.21,-19.71,-20.79,0,*6A
1512835429.25,27083,4.44,71796.5,-15.21,-19.65,-20.73,0,*64
1512835430.52,27084,4.44,71790.3,-15.21,-19.71,-20.79,0,*6C
1512835431.8,27085,4.44,71788.8,-15.21,-19.65,-20.73,0,*62
1512835433.06,27086,4.44,71794.0,-15.23,-19.65,-20.79,0,*69
1512835434.34,27087,4.44,71798.8,-15.21,-19.57,-20.73,0,*61
1512835435.62,27088,4.44,71790.0,-15.21,-19.57,-20.73,0,*6E
1512835436.88,27089,4.44,71794.0,-15.21,-19.71,-20.73,0,*6B
1512835438.16,27090,4.44,71792.3,-15.21,-19.57,-20.73,0,*67
1512835439.44,27091,4.44,71798.3,-15.21,-19.57,-20.73,0,*66
1512835440.72,27092,4.44,71792.5,-15.21,-19.57,-20.73,0,*65
1512835441.99,27093,4.44,71792.5,-15.21,-19.65,-20.73,0,*65
1512835443.28,27094,4.44,71792.8,-15.21,-19.57,-20.63,0,*62
1512835444.56,27095,4.44,71792.8,-15.21,-19.57,-20.63,0,*63
1512835445.84,27096,4.44,71796.8,-15.21,-19.57,-20.63,0,*60
1512835447.12,27097,4.44,71794.8,-15.21,-19.57,-20.63,0,*61
1512835448.4,27098,4.44,71796.0,-15.21,-19.65,-20.63,0,*6F
1512835449.68,27099,4.44,71796.8,-15.21,-19.57,-20.63,0,*6F
1512835450.96,27100,4.44,71792.0,-15.21,-19.65,-20.63,0,*6F
1512835452.24,27101,4.44,71790.8,-15.21,-19.65,-20.63,0,*6E
1512835453.52,27102,4.44,71794.8,-15.21,-19.65,-20.63,0,*6D
1512835454.8,27103,4.44,71796.0,-15.21,-19.65,-20.63,0,*6C
1512835456.07,27104,4.44,71794.0,-15.21,-19.65,-20.63,0,*6B
1512835457.35,27105,4.44,71792.0,-15.21,-19.65,-20.73,0,*6B
1512835458.63,27106,4.44,71792.8,-15.21,-19.65,-20.73,0,*68
1512835459.91,27107,4.44,71794.5,-15.21,-19.57,-20.63,0,*69
1512835461.19,27108,4.44,71794.0,-15.21,-19.65,-20.63,0,*67
1512835462.47,27109,4.44,71796.5,-15.21,-19.57,-20.63,0,*67
1512835463.72,27110,4.44,71794.0,-15.19,-19.65,-20.63,0,*65
1512835464.96,27111,4.44,71790.8,-15.19,-19.65,-20.63,0,*64
1512835466.24,27112,4.44,71792.3,-15.21,-19.65,-20.73,0,*6D
1512835467.46,27113,4.44,71794.0,-15.19,-19.71,-20.73,0,*62
1512835468.69,27114,4.44,71794.3,-15.19,-19.71,-20.73,0,*65
1512835469.94,27115,4.44,71794.0,-15.19,-19.57,-20.73,0,*60
1512835471.2,27116,4.44,71794.3,-15.17,-19.65,-20.69,0,*67
1512835472.43,27117,4.44,71798.3,-15.19,-19.71,-20.73,0,*66
1512835473.65,27118,4.44,71798.0,-15.19,-19.71,-20.73,0,*69
1512835474.87,27119,4.44,71798.3,-15.19,-19.71,-20.73,0,*68
1512835476.12,27120,4.44,71794.3,-15.19,-19.61,-20.69,0,*68
1512835477.36,27121,4.44,71792.5,-15.19,-19.65,-20.73,0,*66
1512835478.63,27122,4.44,71792.8,-15.17,-19.65,-20.69,0,*60
1512835479.87,27123,4.44,71794.8,-15.19,-19.81,-20.73,0,*6E
1512835481.1,27124,4.44,71798.0,-15.19,-19.81,-20.73,0,*69
1512835482.34,27125,4.44,71798.0,-15.19,-19.81,-20.73,0,*68
1512835483.58,27126,4.44,71794.5,-15.19,-19.71,-20.79,0,*6E
1512835484.85,27127,4.44,71792.0,-15.17,-19.65,-20.73,0,*6E
1512835486.09,27128,4.44,71792.3,-15.19,-19.71,-20.79,0,*60
1512835487.33,27129,4.44,71792.3,-15.17,-19.75,-20.73,0,*61
1512835488.58,27130,4.44,71792.3,-15.19,-19.85,-20.73,0,*68
1512835489.83,27131,4.44,71792.3,-15.19,-19.81,-20.79,0,*67
1512835491.07,27132,4.44,71796.5,-15.15,-19.75,-20.83,0,*66
1512835492.31,27133,4.44,71792.5,-15.19,-19.81,-20.89,0,*6A
1512835493.58,27134,4.44,71794.8,-15.21,-19.81,-20.73,0,*63
1512835494.81,27135,4.44,71794.3,-15.19,-19.81,-20.73,0,*69
1512835496.05,27136,4.44,71794.5,-15.19,-19.81,-20.73,0,*6A
1512835497.3,27137,4.44,71794.3,-15.19,-19.81,-20.79,0,*61
1512835498.56,27138,4.44,71788.8,-15.19,-19.81,-20.79,0,*6E
1512835499.8,27139,4.44,71790.3,-15.19,-19.81,-20.89,0,*60
1512835501.07,27140,4.44,71788.0,-15.17,-19.61,-20.73,0,*6B
1512835502.31,27141,4.44,71792.8,-15.19,-19.81,-20.89,0,*6F
1512835503.55,27142,4.44,71796.5,-15.19,-19.81,-20.73,0,*69
1512835504.78,27143,4.44,71798.3,-15.19,-19.81,-20.73,0,*68
1512835506.04,27144,4.44,71790.8,-15.19,-19.81,-20.79,0,*65
1512835507.28,27145,4.44,71794.8,-15.19,-19.71,-20.79,0,*6B
1512835508.53,27146,4.44,71792.0,-15.19,-19.81,-20.79,0,*67
1512835509.83,27147,4.44,71792.8,-15.17,-19.65,-20.83,0,*67
1512835511.07,27148,4.44,71796.0,-15.17,-19.75,-20.73,0,*66
1512835512.32,27149,4.44,71796.3,-15.19,-19.81,-20.79,0,*68
1512835513.55,27150,4.44,71794.5,-15.19,-19.71,-20.73,0,*65
1512835514.81,27151,4.44,71796.3,-15.19,-19.85,-20.79,0,*65
1512835516.05,27152,4.44,71792.8,-15.17,-19.75,-20.69,0,*66
1512835517.31,27153,4.44,71796.5,-15.17,-19.65,-20.69,0,*66
1512835518.58,27154,4.44,71792.3,-15.17,-19.61,-20.69,0,*65
1512835519.83,27155,4.44,71798.3,-15.19,-19.61,-20.73,0,*61
1512835521.06,27156,4.44,71796.3,-15.19,-19.71,-20.73,0,*63
1512835522.32,27157,4.44,71796.5,-15.17,-19.65,-20.69,0,*62
1512835523.57,27158,4.44,71796.8,-15.19,-19.71,-20.79,0,*67
1512835524.84,27159,4.44,71798.0,-15.17,-19.65,-20.73,0,*67
1512835526.11,27160,4.44,71796.3,-15.17,-19.65,-20.73,0,*6D
1512835527.38,27161,4.44,71800.3,-15.17,-19.65,-20.73,0,*6C
1512835528.62,27162,4.44,71800.3,-15.17,-19.75,-20.73,0,*6E
1512835529.86,27163,4.44,71796.3,-15.17,-19.75,-20.69,0,*64
1512835531.13,27164,4.44,71798.8,-15.17,-19.75,-20.83,0,*67
1512835532.38,27165,4.44,71798.5,-15.13,-19.71,-20.63,0,*68
1512835533.64,27166,4.44,71798.3,-15.17,-19.75,-20.83,0,*65
1512835534.89,27167,4.44,71798.0,-15.13,-19.71,-20.63,0,*6A
1512835536.13,27168,4.44,71796.0,-15.17,-19.75,-20.69,0,*6F
1512835537.37,27169,4.44,71796.0,-15.17,-19.75,-20.69,0,*6E
1512835538.61,27170,4.44,71798.8,-15.17,-19.75,-20.73,0,*6D
1512835539.85,27171,4.44,71798.5,-15.15,-19.81,-20.89,0,*60
1512835541.1,27172,4.44,71802.0,-15.15,-19.75,-20.83,0,*62
1512835542.33,27173,4.44,71794.8,-15.15,-19.81,-20.73,0,*67
1512835543.59,27174,4.44,71794.3,-15.17,-19.81,-20.73,0,*62
1512835544.85,27175,4.44,71796.0,-15.17,-19.81,-20.69,0,*68
1512835546.06,27176,4.44,71798.0,-15.15,-19.75,-20.73,0,*69
1512835547.33,27177,4.44,71792.0,-15.17,-19.81,-20.89,0,*64
1512835548.59,27178,4.44,71794.8,-15.17,-19.81,-20.73,0,*6E
1512835549.85,27179,4.44,71788.5,-15.15,-19.81,-20.83,0,*62
1512835551.07,27180,4.44,71790.3,-15.15,-19.75,-20.73,0,*60
1512835552.31,27181,4.44,71798.8,-15.15,-19.81,-20.89,0,*6F
1512835553.55,27182,4.44,71794.5,-15.15,-19.81,-20.89,0,*6C
1512835554.81,27183,4.44,71792.0,-15.15,-19.81,-20.83,0,*67
1512835556.07,27184,4.44,71792.5,-15.17,-19.75,-20.83,0,*69
1512835557.32,27185,4.44,71796.0,-15.17,-19.91,-20.89,0,*68
1512835558.59,27186,4.44,71796.3,-15.17,-19.91,-20.83,0,*61
1512835559.85,27187,4.44,71794.8,-15.17,-19.81,-20.89,0,*6B
1512835561.13,27188,4.44,71794.8,-15.17,-19.81,-20.83,0,*6E
1512835562.36,27189,4.44,71800.0,-15.15,-19.91,-20.89,0,*66
1512835563.62,27190,4.44,71798.8,-15.15,-19.81,-20.83,0,*65
1512835564.85,27191,4.44,71798.0,-15.15,-19.81,-20.69,0,*60
1512835566.09,27192,4.44,71798.8,-15.15,-19.81,-20.89,0,*6D
1512835567.36,27193,4.44,71796.0,-15.17,-19.75,-20.83,0,*6F
1512835568.63,27194,4.44,71798.3,-15.17,-19.65,-20.73,0,*66
1512835569.87,27195,4.44,71792.5,-15.13,-19.71,-20.69,0,*6D
1512835571.11,27196,4.44,71800.3,-15.15,-19.81,-20.73,0,*6C
1512835572.33,27197,4.44,71800.8,-15.15,-19.75,-20.73,0,*66
1512835573.57,27198,4.44,71798.8,-15.15,-19.75,-20.83,0,*66
1512835574.81,27199,4.44,71798.0,-15.15,-19.75,-20.83,0,*67
1512835576.08,27200,4.44,71792.8,-15.15,-19.65,-20.83,0,*65
1512835577.34,27201,4.44,71802.5,-15.17,-19.65,-20.69,0,*62
1512835578.59,27202,4.44,71800.0,-15.15,-19.65,-20.69,0,*63
1512835579.8,27203,4.44,71804.0,-15.15,-19.75,-20.69,0,*63
1512835581.02,27204,4.44,71798.5,-15.15,-19.75,-20.73,0,*6F
1512835582.24,27205,4.44,71794.8,-15.15,-19.75,-20.73,0,*6E
1512835583.5,27206,4.44,71802.8,-15.15,-19.81,-20.83,0,*69
1512835584.74,27207,4.44,71802.5,-15.15,-19.81,-20.89,0,*62
1512835586.0,27208,4.44,71800.3,-15.13,-19.75,-20.79,0,*6F
1512835587.26,27209,4.44,71796.5,-15.15,-19.81,-20.83,0,*66
1512835588.52,27210,4.44,71798.0,-15.13,-19.75,-20.79,0,*66
1512835589.74,27211,4.44,71800.0,-15.15,-19.75,-20.73,0,*6B
1512835590.96,27212,4.44,71798.0,-15.15,-19.75,-20.69,0,*63
1512835592.21,27213,4.44,71800.3,-15.13,-19.71,-20.63,0,*6A
1512835593.43,27214,4.44,71796.3,-15.15,-19.75,-20.73,0,*6E
1512835594.68,27215,4.44,71798.8,-15.13,-19.71,-20.63,0,*6C
1512835595.93,27216,4.44,71802.3,-15.15,-19.65,-20.73,0,*6D
1512835597.17,27217,4.44,71796.8,-15.13,-19.71,-20.69,0,*64
1512835598.39,27218,4.44,71796.8,-15.15,-19.75,-20.73,0,*62
1512835599.61,27219,4.44,71800.3,-15.15,-19.75,-20.73,0,*63
1512835600.82,27220,4.44,71800.8,-15.15,-19.75,-20.69,0,*62
1512835602.07,27221,4.44,71800.3,-15.15,-19.65,-20.59,0,*61
1512835603.35,27222,4.44,71800.0,-15.13,-19.61,-20.63,0,*69
1512835604.6,27223,4.44,71802.0,-15.13,-19.71,-20.69,0,*63
1512835605.84,27224,4.44,71802.3,-15.13,-19.71,-20.69,0,*64
1512835607.06,27225,4.44,71796.0,-15.15,-19.75,-20.73,0,*6C
1512835608.31,27226,4.44,71804.8,-15.13,-19.71,-20.69,0,*66
1512835609.56,27227,4.44,71800.8,-15.13,-19.71,-20.63,0,*6D
1512835610.86,27228,4.44,71800.3,-15.13,-19.61,-20.53,0,*60
1512835612.11,27229,4.44,71800.8,-15.15,-19.65,-20.73,0,*61
1512835613.35,27230,4.44,71798.5,-15.15,-19.75,-20.83,0,*67
1512835614.62,27231,4.44,71798.3,-15.13,-19.71,-20.79,0,*61
1512835615.89,27232,4.44,71800.0,-15.13,-19.75,-20.83,0,*63
1512835617.15,27233,4.44,71802.8,-15.13,-19.75,-20.83,0,*62
1512835618.43,27234,4.44,71796.5,-15.09,-19.71,-20.83,0,*6A
1512835619.69,27235,4.44,71798.0,-15.09,-19.71,-20.79,0,*6E
1512835620.96,27236,4.44,71802.5,-15.13,-19.75,-20.79,0,*62
1512835622.2,27237,4.44,71796.8,-15.15,-19.81,-20.89,0,*61
1512835623.47,27238,4.44,71802.0,-15.13,-19.75,-20.83,0,*69
1512835624.73,27239,4.44,71800.5,-15.13,-19.75,-20.79,0,*6D
1512835626.0,27240,4.44,71798.0,-15.09,-19.75,-20.83,0,*6D
1512835627.29,27241,4.44,71798.0,-15.13,-19.85,-20.83,0,*68
1512835628.52,27242,4.44,71800.3,-15.15,-19.91,-20.89,0,*62
1512835629.78,27243,4.44,71800.5,-15.13,-19.75,-20.79,0,*60
1512835631.05,27244,4.44,71798.8,-15.09,-19.75,-20.83,0,*69
1512835632.31,27245,4.44,71802.8,-15.13,-19.75,-20.79,0,*66
1512835633.58,27246,4.44,71802.0,-15.13,-19.75,-20.83,0,*60
1512835634.85,27247,4.44,71802.0,-15.13,-19.71,-20.79,0,*60
1512835636.12,27248,4.44,71798.3,-15.09,-19.71,-20.79,0,*64
1512835637.39,27249,4.44,71800.5,-15.09,-19.71,-20.79,0,*65
1512835638.63,27250,4.44,71802.3,-15.15,-19.81,-20.89,0,*60
1512835639.85,27251,4.44,71802.8,-15.15,-19.75,-20.89,0,*6A
1512835641.13,27252,4.44,71802.5,-15.13,-19.85,-20.89,0,*60
1512835642.37,27253,4.44,71800.8,-15.15,-19.81,-20.89,0,*63
1512835643.61,27254,4.44,71800.5,-15.15,-19.81,-20.93,0,*6F
1512835644.87,27255,4.44,71802.8,-15.13,-19.75,-20.99,0,*69
1512835646.13,27256,4.44,71804.0,-15.13,-19.71,-20.89,0,*6F
1512835647.36,27257,4.44,71800.5,-15.15,-19.81,-20.93,0,*6C
1512835648.6,27258,4.44,71800.0,-15.15,-19.81,-20.93,0,*63
1512835649.89,27259,4.44,71800.3,-15.13,-19.85,-21.03,0,*68
1512835651.12,27260,4.44,71800.0,-15.15,-19.81,-20.93,0,*68
1512835652.38,27261,4.44,71802.5,-15.13,-19.75,-20.89,0,*6F
1512835653.65,27262,4.44,71800.5,-15.13,-19.71,-20.83,0,*62
1512835654.87,27263,4.44,71802.8,-15.15,-19.75,-20.89,0,*6B
1512835656.11,27264,4.44,71800.8,-15.15,-19.81,-20.89,0,*67
1512835657.37,27265,4.44,71802.0,-15.09,-19.75,-20.89,0,*60
1512835658.63,27266,4.44,71800.5,-15.13,-19.75,-20.83,0,*62
1512835659.88,27267,4.44,71804.5,-15.13,-19.75,-20.89,0,*69
1512835661.12,27268,4.44,71804.8,-15.15,-19.81,-20.93,0,*60
1512835662.37,27269,4.44,71800.0,-15.13,-19.75,-20.89,0,*67
1512835663.62,27270,4.44,71804.0,-15.15,-19.95,-21.03,0,*64
1512835664.83,27271,4.44,71802.8,-15.15,-19.91,-20.93,0,*69
1512835666.05,27272,4.44,71802.8,-15.15,-19.75,-20.93,0,*60
1512835667.3,27273,4.44,71802.3,-15.13,-19.75,-20.89,0,*6C
1512835668.57,27274,4.44,71804.0,-15.13,-19.75,-20.99,0,*6A
1512835669.84,27275,4.44,71808.0,-15.15,-19.85,-21.03,0,*60
1512835671.13,27276,4.44,71806.0,-15.13,-19.85,-20.99,0,*67
1512835672.4,27277,4.44,71802.0,-15.13,-19.71,-20.99,0,*6D
1512835673.67,27278,4.44,71806.3,-15.13,-19.71,-20.99,0,*62
1512835674.9,27279,4.44,71806.0,-15.15,-19.81,-21.09,0,*62
1512835676.16,27280,4.44,71804.3,-15.15,-19.81,-21.03,0,*6E
1512835677.38,27281,4.44,71806.5,-15.15,-19.75,-20.93,0,*6C
1512835678.65,27282,4.44,71806.0,-15.13,-19.75,-20.99,0,*63
1512835679.94,27283,4.44,71808.3,-15.13,-19.85,-21.03,0,*6F
1512835681.15,27284,4.44,71808.0,-15.15,-19.91,-21.09,0,*61
1512835682.41,27285,4.44,71808.3,-15.15,-19.81,-21.03,0,*6B
1512835683.66,27286,4.44,71808.5,-15.15,-19.81,-21.03,0,*68
1512835684.93,27287,4.44,71808.0,-15.13,-19.75,-20.99,0,*66
1512835686.16,27288,4.44,71808.5,-15.15,-19.81,-21.09,0,*6C
1512835687.43,27289,4.44,71808.0,-15.13,-19.71,-21.03,0,*6E
1512835688.65,27290,4.44,71806.3,-15.15,-19.75,-20.93,0,*6C
1512835689.92,27291,4.44,71804.8,-15.13,-19.71,-20.99,0,*65
1512835691.17,27292,4.44,71806.0,-15.15,-19.65,-20.93,0,*6F
1512835692.42,27293,4.44,71810.3,-15.15,-19.71,-20.83,0,*6A
1512835693.69,27294,4.44,71808.8,-15.13,-19.75,-20.99,0,*64
1512835694.9,27295,4.44,71806.5,-15.15,-19.75,-20.93,0,*69
1512835696.13,27296,4.44,71806.8,-15.15,-19.81,-21.09,0,*63
1512835697.42,27297,4.44,71800.3,-15.13,-19.85,-20.99,0,*68
1512835698.69,27298,4.44,71808.0,-15.13,-19.75,-21.03,0,*6A
1512835699.96,27299,4.44,71810.0,-15.13,-19.71,-20.99,0,*6D
1512835701.24,27300,4.44,71806.5,-15.13,-19.71,-20.99,0,*6C